Location: Austin
(30.3000°N, 97.7500°W)
Time: 01:35:57
(UTC-05:00)

Cosmos 2278 Rocket - Pass Details

Date: 15 May 2024
Orbit: 839 x 846 km, 71.0° (Epoch: 29 May)

Event Time Altitude Azimuth Distance (km) Brightness Sun altitude
Rises 23:22:51 0° 325° (NW) 3,404 6.5 -32.1°
Reaches altitude 10° 23:25:39 10° 313° (NW) 2,464 5.4 -32.5°
Enters shadow 23:30:07 27° 261° (W) 1,577 3.7 -33.0°
